This is the latest recevied weather packets stored in our database for station/object N8BAP. If no packets are shown the sender has not sent any weather packets the latest 10 day(s).
| Time | Temp. | Humidity | Pressure | Rain* | Wind** | Luminosity | Snow |
|---|---|---|---|---|---|---|---|
| 1787937432 | 27.78° C | 61% | 1025.8 hPa | 0 mm | - | 685 W/m² | - |
| 1787937128 | 27.78° C | 58% | 1026 hPa | 0 mm | - | 645 W/m² | - |
| 1787936822 | 27.22° C | 58% | 1025.7 hPa | 0 mm | - | 692 W/m² | - |
| 1787936517 | 26.67° C | 65% | 1025.8 hPa | 0 mm | - | 714 W/m² | - |
| 1787936216 | 27.22° C | 58% | 1026 hPa | 0 mm | - | 759 W/m² | - |
| 1787935911 | 27.22° C | 58% | 1025.8 hPa | 0 mm | - | 743 W/m² | - |
| 1787935601 | 26.67° C | 60% | 1026 hPa | 0 mm | - | 769 W/m² | - |
| 1787935297 | 26.67° C | 65% | 1025.7 hPa | 0 mm | - | 684 W/m² | - |
| 1787934992 | 26.67° C | 64% | 1025.8 hPa | 0 mm | - | 190 W/m² | - |
| 1787934687 | 26.67° C | 62% | 1025.9 hPa | 0 mm | - | 695 W/m² | - |
| 1787934386 | 27.22° C | 62% | 1025.9 hPa | 0 mm | - | 700 W/m² | - |
| 1787934086 | 27.78° C | 58% | 1025.9 hPa | 0 mm | - | 487 W/m² | - |
| 1787933785 | 27.22° C | 64% | 1025.7 hPa | 0 mm | - | 782 W/m² | - |
| 1787933480 | 26.67° C | 62% | 1025.7 hPa | 0 mm | - | 676 W/m² | - |
| 1787933175 | 26.11° C | 68% | 1025.8 hPa | 0 mm | - | 629 W/m² | - |
| 1787932869 | 26.67° C | 66% | 1025.9 hPa | 0 mm | - | 122 W/m² | - |
| 1787932563 | 26.67° C | 61% | 1025.7 hPa | 0 mm | - | 690 W/m² | - |
| 1787932257 | 26.67° C | 63% | 1025.7 hPa | 0 mm | - | 691 W/m² | - |
| 1787931957 | 27.22° C | 62% | 1025.8 hPa | 0 mm | - | 720 W/m² | - |
| 1787931656 | 26.67° C | 64% | 1025.9 hPa | 0 mm | - | 716 W/m² | - |
| 1787931351 | 26.67° C | 65% | 1025.9 hPa | 0 mm | - | 712 W/m² | - |
| 1787931046 | 26.11° C | 65% | 1026 hPa | 0 mm | - | 696 W/m² | - |
| 1787930744 | 26.11° C | 67% | 1025.8 hPa | 0 mm | - | 686 W/m² | - |
| 1787930440 | 26.67° C | 65% | 1025.6 hPa | 0 mm | - | 698 W/m² | - |
| 1787930135 | 26.11° C | 69% | 1025.7 hPa | 0 mm | - | 689 W/m² | - |
* Rain latest hour (hover to see other rain measurements)
** Current wind speed in m/s (hover to see current wind gust speed)